Regional Weather Roundup
Issued by NWS

Home | Current Version | Previous Version | Text Only | Print | Product List | Glossary Off
Versions: 1 2 3 4 5 6 7 8 9 10 11 12 13 14 15 16 17 18 19 20 21 22 23 24 25 26 27 28 29 30 31 32 33 34 35 36 37 38 39 40 41 42 43 44 45 46 47 48

000
ASUS43 KDMX 072107
RWRIA

WEATHER ROUNDUP FOR IOWA
NATIONAL WEATHER SERVICE DES MOINES IA
400 PM CDT TUE JUL 07 2015

NOTE: "FAIR" INDICATES FEW OR NO CLOUDS BELOW 12,000 FEET WITH NO
SIGNIFICANT WEATHER AND/OR OBSTRUCTIONS TO VISIBILITY.

* - THESE STATIONS ARE NOT NWS STATIONS...THUS NOT UNDER NWS
QUALITY CONTROL.  THEY ALSO DO NOT REPORT WEATHER SUCH
AS PRECIPITATION OR FOG.

IAZ001>003-012>014-020>022-031>034-043>046-072200-
   NORTHWEST IOWA

CITY           SKY/WX    TMP DP  RH WIND       PRES   REMARKS
CARROLL *      MOSUNNY   70  52  52 N10       30.11F
CHEROKEE *     SUNNY     70  50  49 N8        30.13F
DENISON *      MOSUNNY   68  52  56 NE12G18   30.10F
LE MARS *      SUNNY     70  50  49 N8        30.14F
ORANGE CITY *  SUNNY     66  46  48 E7        30.14F
SHELDON *      SUNNY     68  55  64 NE12G17   30.13F
SIOUX CITY     SUNNY     71  49  45 VRB6G17   30.13F
SPENCER        SUNNY     69  49  48 NE14      30.14F
STORM LAKE *   SUNNY     68  52  56 NE9G17    30.14S
$$

IAZ055>058-069>071-079>083-090>094-072200-
   SOUTHWEST IOWA

CITY           SKY/WX    TMP DP  RH WIND       PRES   REMARKS
ATLANTIC *     SUNNY     70  50  49 N8G15     30.11F
AUDUBON *      SUNNY     72  54  53 NE7       30.12F
CLARINDA *     SUNNY     73  61  64 NE9       30.11S
COUNCIL BLFS * SUNNY     70  52  52 N9        30.12S
CRESTON *      SUNNY     70  52  52 NE10G16   30.10F
HARLAN  *      SUNNY     70  54  56 NE9       30.14F
LAMONI         MOSUNNY   72  56  57 NE10      30.08F
RED OAK *      SUNNY     73  52  46 N7G15     30.10F
SHENANDOAH *   SUNNY     72  52  49 N12G17    30.10F
$$

IAZ047>049-059>061-072>074-084-072200-
   CENTRAL IOWA

CITY           SKY/WX    TMP DP  RH WIND       PRES   REMARKS
AMES           MOSUNNY   70  51  51 VRB3      30.10F
ANKENY *       MOSUNNY   70  54  56 NE10G16   30.09F
CHARITON *     MOSUNNY   72  55  56 NE12      30.08F
DES MOINES     PTSUNNY   73  50  44 N7        30.09S
GRINNELL*      PTSUNNY   70  54  56 N9        30.10S
KNOXVILLE *    PTSUNNY   72  52  49 N10       30.08S
MARSHALLTOWN   PTSUNNY   68  51  54 N8        30.10S
PELLA *        MOSUNNY   70  57  64 N5        30.09F
PERRY *        PTSUNNY   70  50  49 N10       30.11S
$$

IAZ004>006-015-016-023>025-035-036-072200-
   NORTH CENTRAL IOWA

CITY           SKY/WX    TMP DP  RH WIND       PRES   REMARKS
ALGONA *       MOSUNNY   66  50  55 N9        30.14S
CLARION *      MOSUNNY   68  50  52 NE10      30.12S
ESTHERVILLE    MOSUNNY   66  51  58 N7G16     30.14F
FORT DODGE *   MOSUNNY   70  52  52 NE8G16    30.13S
MASON CITY     MOSUNNY   69  51  52 N15       30.13F
FOREST CITY *  MOSUNNY   64  50  59 N12       30.13S
IOWA FALLS *     N/A     68  52  56 N9        30.12S
$$

IAZ007>011-017>019-026>030-037>042-050>054-066-072200-
   NORTHEAST IOWA

CITY           SKY/WX    TMP DP  RH WIND       PRES   REMARKS
CEDAR RAPIDS   MOSUNNY   70  54  56 N13       30.07S
CHARLES CITY * MOSUNNY   66  50  55 N8G17     30.12F
CLINTON *      CLOUDY    70  54  56 NE9       30.08S
DECORAH *        N/A    N/A N/A N/A MISG        N/A
DUBUQUE        PTSUNNY   69  52  54 N8        30.08R
MONTICELLO *   MOSUNNY   70  54  56 N8        30.08R
OELWEIN *      MOSUNNY   68  52  56 N8G14     30.11S
WATERLOO       PTSUNNY   67  49  52 NE8       30.09S
$$

IAZ064-065-067-068-078-072200-
   EAST CENTRAL IOWA

CITY           SKY/WX    TMP DP  RH WIND       PRES   REMARKS
DAVENPORT      PTSUNNY   72  56  57 NE10      30.06R
IOWA CITY      PTSUNNY   74  56  53 N9G17     30.07S
MT. PLEASANT * PTSUNNY   77  50  38 N12       30.06S
MUSCATINE *    PTSUNNY   73  55  53 N10       30.06S
QUAD CITIES    PTSUNNY   71  55  56 N12       30.05R HAZE
$$

IAZ062-063-075>077-085>089-095>099-072200-
   SOUTHEAST IOWA

CITY           SKY/WX    TMP DP  RH WIND       PRES   REMARKS
BURLINGTON     MOSUNNY   75  58  55 N7        30.05R HAZE
FAIRFIELD *    PTSUNNY   73  57  56 NE10      30.06F
FORT MADISON * MOSUNNY   72  57  60 N6        30.06S HAZE
KEOKUK *       MOSUNNY   73  59  60 NE10      30.03F
OSKALOOSA *    PTSUNNY   72  55  56 N7        30.08S
CENTERVILLE *  SUNNY     72  57  60 N9        30.08F
OTTUMWA        PTSUNNY   73  56  54 N10       30.06S
WASHINGTON *   CLOUDY    72  59  64 NE9       30.08S
$$

ABBREVIATIONS USED IN REMARKS
   TC - TEMPERATURES IN CELSIUS
  WCI - WIND CHILL INDEX
   HX - HEAT INDEX
  VSB - VISIBILITY
$$




USA.gov is the U.S. government's official web portal to all federal, state and local government web resources and services.